Simultaneous Nadir Overpasses (SNOs) Predictions

Prediction of SNOs between GOES-17 and METOP-C Satellite Orbit:

Table of predicted SNOs for the next 14.0 days since TLE Epoch: 10/7/2023
Index Date Time (GOES-17) GOES-17 Lat,Lon METOP-C Lat,Lon Distance(km) Time Diff (sec)
1 10/07/2023 04:17:15 -0.02,-104.69 0.51,-102.43 257.86 80
2 10/08/2023 16:36:07 0.01,-104.71 0.54,-106.98 259.03 80
3 10/09/2023 16:18:08 0.00,-104.71 -0.59,-101.99 309.85 80
4 10/11/2023 04:37:10 0.01,-104.69 -0.45,-106.59 217.20 80
5 10/12/2023 04:13:52 0.01,-104.69 0.68,-101.60 351.71 80
6 10/13/2023 16:32:44 -0.01,-104.72 0.29,-106.17 164.83 80
7 10/14/2023 16:14:45 -0.02,-104.72 -0.78,-101.16 404.45 80
8 10/16/2023 04:33:47 0.02,-104.70 -0.23,-105.77 122.03 80
9 10/17/2023 04:10:29 0.02,-104.70 0.91,-100.78 447.00 80
10 10/18/2023 16:29:20 -0.01,-104.71 0.11,-105.33 70.10 80
11 10/19/2023 16:11:20 0.00,-104.71 -0.98,-100.33 499.02 80
